Flag for Benin Weather past 2 weeks in Porto Novo, Benin

Now
82 °F

Broken clouds.


Feels Like: 91 °F
Forecast: 72 / 86 °F
Wind: 10 mph from Southwest

Location: Cotonou Airport

Current Time: Aug 27, 2014 at 3:01:13 PM

Latest Report: Aug 27, 2014 at 2:00 PM


Visibility: N/A

Pressure: 29.92 "Hg

Humidity: 84%

Dew point: 77 °F

Location of Porto NovoLocation

Historic Weather in Porto Novo — Graph

°F

Porto Novo temperature yesterday

Maximum temperature yesterday: 77 °F (at 12:00 AM)
Minimum temperature yesterday: 70 °F (at 5:00 AM)
Average temperature yesterday: 74 °F

Past Weeks' High & Low Weather Summary

 TemperatureHumidityPressure
High84 °F (Aug 25, 3:00 PM)100% (Aug 12, 11:00 PM)30.01 "Hg (Aug 12, 11:00 PM)
Low70 °F (Aug 26, 5:00 AM)66% (Aug 14, 1:00 PM)29.83 "Hg (Aug 19, 5:00 PM)
Average77 °F95%29.91 "Hg
* Reported Aug 12 1:00 PM — Aug 27 1:00 PM, Porto Novo, Weather by CustomWeather, © 2014

Note: Actual official high and low records may vary slightly from our data, if they occured in-between our weather recording intervals... More about our weather records

Advertising

Porto Novo weather history for previous 24 hours

 ConditionsComfort  
Time TempWeatherWind HumidityBarometerVisibility
1:00 PM
Aug 27
82 °FBroken clouds.12 mph84%29.92 "HgN/A
12:00 PM81 °FBroken clouds.9 mph89%29.95 "HgN/A
11:00 AM81 °FBroken clouds.8 mph94%29.98 "HgN/A
10:00 AM79 °FBroken clouds.7 mph100%29.98 "Hg5 mi
9:00 AM79 °FBroken clouds.8 mph100%29.98 "Hg5 mi
8:00 AM77 °FBroken clouds.7 mph100%29.95 "Hg5 mi
7:00 AM75 °FBroken clouds.6 mph100%29.95 "Hg5 mi
6:00 AM75 °FPartly cloudy.7 mph100%29.92 "Hg5 mi
4:00 AM77 °FPartly cloudy.8 mph100%29.92 "Hg5 mi
3:00 AM75 °FPassing clouds.8 mph100%29.92 "Hg5 mi
2:00 AM75 °FPassing clouds.8 mph100%29.92 "Hg5 mi
1:00 AM75 °FRain showers. Passing clouds.8 mph100%29.92 "Hg2 mi
12:00 AM75 °FPassing clouds.3 mph100%29.95 "Hg4 mi
11:00 PM
Aug 26
75 °FPassing clouds.3 mph100%29.95 "Hg5 mi
10:00 PM75 °FPartly cloudy.8 mph100%29.95 "Hg5 mi
9:00 PM77 °FPartly cloudy.7 mph100%29.92 "Hg5 mi
8:00 PM75 °FPartly cloudy.3 mph100%29.89 "Hg5 mi
7:00 PM75 °FPassing clouds.3 mph100%29.89 "Hg5 mi
6:00 PM75 °FBroken clouds.2 mph100%29.86 "HgN/A
5:00 PM77 °FBroken clouds.3 mph94%29.86 "HgN/A
4:00 PM77 °FBroken clouds.5 mph100%29.86 "HgN/A
3:00 PM77 °FBroken clouds.5 mph94%29.86 "HgN/A
Weather by CustomWeather, © 2014

See weather overviewHow to use our weather pages